Flag for United Kingdom Weather past 2 weeks in Perth, Scotland, United Kingdom

Now
43 °F

Quite cool.


Feels Like: 37 °F
Forecast: 38 / 54 °F
Wind: 13 mph from Southwest

Location: Strathallan

Current Time: May 28, 2015 at 3:30:06 AM

Latest Report: May 28, 2015 at 2:00 AM


Visibility: 31 mi

Pressure: 29.68 "Hg

Humidity: 89%

Dew point: 40 °F

Location of PerthLocation

Historic Weather in Perth — Graph

°F

Perth temperature yesterday

Maximum temperature yesterday: 52 °F (at 1:00 PM)
Minimum temperature yesterday: 44 °F (at 11:00 PM)
Average temperature yesterday: 48 °F

Past Weeks' High & Low Weather Summary

 TemperatureHumidityPressure
High61 °F (May 22, 1:00 PM)100% (May 19, 5:00 AM)30.32 "Hg (May 19, 5:00 AM)
Low32 °F (May 15, 3:00 AM)42% (May 20, 1:00 PM)29.35 "Hg (May 18, 5:00 PM)
Average50 °F73%29.98 "Hg
* Reported May 13 2:00 AM — May 28 2:00 AM, Perth, Weather by CustomWeather, © 2015

Note: Actual official high and low records may vary slightly from our data, if they occured in-between our weather recording intervals... More about our weather records

Advertising

Perth weather history for previous 24 hours

 ConditionsComfort  
Time TempWeatherWind HumidityBarometerVisibility
2:00 AM
Thu, May 28
43 °FQuite cool.13 mph89%29.68 "Hg31 mi
1:00 AM43 °FQuite cool.10 mph90%29.68 "Hg31 mi
12:00 AM44 °FQuite cool.13 mph96%29.67 "Hg28 mi
11:00 PM
Wed, May 27
44 °FQuite cool.5 mph97%29.70 "Hg31 mi
9:00 PM45 °FLots of rain. Cloudy.9 mph90%29.74 "Hg9 mi
8:00 PM46 °FCool.9 mph85%29.76 "Hg28 mi
7:00 PM47 °FCool.10 mph87%29.79 "Hg31 mi
6:00 PM46 °FLight rain. Cloudy.8 mph90%29.83 "Hg16 mi
5:00 PM47 °FLight rain. Cloudy.9 mph88%29.88 "Hg10 mi
4:00 PM46 °FRain. Cloudy.10 mph92%29.93 "Hg6 mi
3:00 PM47 °FRain. Cloudy.12 mph90%29.96 "Hg6 mi
2:00 PM51 °FLight freezing rain. Cloudy.10 mph71%29.99 "Hg25 mi
1:00 PM52 °FCool.12 mph71%30.01 "Hg22 mi
12:00 PM50 °FCool.14 mph75%30.05 "Hg17 mi
11:00 AM49 °FCool.14 mph72%30.09 "Hg28 mi
10:00 AM49 °FCool.9 mph74%30.11 "Hg22 mi
9:00 AM50 °FCool.15 mph73%30.13 "Hg22 mi
8:00 AM48 °FCool.10 mph75%30.16 "Hg22 mi
7:00 AM48 °FCool.10 mph75%30.17 "Hg19 mi
6:00 AM47 °FCool.10 mph76%30.18 "Hg28 mi
5:00 AM47 °FCool.12 mph80%30.20 "Hg28 mi
3:00 AM47 °FCool.13 mph81%30.22 "Hg28 mi
Weather by CustomWeather, © 2015

See weather overviewHow to use our weather pages